Weather History for KCPW - November, 2012

Change the Weather History Date:

Sunday, November 18, 2012

  Actual Average (KALS) Record (KALS)
Temperature  
Mean Temperature 26 °F 28 °F  
Max Temperature 30 °F 45 °F 62 °F (1949)
Min Temperature 21 °F 11 °F -22 °F (1958)
Degree Days  
Heating Degree Days 40 37  
Month to date heating degree days 585  
Since 1 July heating degree days 1695  
Cooling Degree Days 0 0  
Month to date cooling degree days 0  
Year to date cooling degree days 51  
Moisture  
Dew Point 21 °F    
Average Humidity 92    
Maximum Humidity 100    
Minimum Humidity 69    
Precipitation  
Precipitation 0.00 in 0.01 in 0.53 in (1964)
Month to date precipitation 0.28  
Year to date precipitation 6.82  
Snow  
Snow 0.00 in 0.10 in 7.40 in (1964)
Month to date snowfall 2.1  
Since 1 July snowfall 4.2  
Since 1 September snowfall 4.2  
Snow Depth -    
Sea Level Pressure  
Sea Level Pressure 30.27 in    
Wind  
Wind Speed 17 mph (SW)    
Max Wind Speed 29 mph    
Max Gust Speed 37 mph    
Visibility 8 miles    
Events Fog , Snow    
T = Trace of Precipitation, MM = Missing Value Source: NWS Daily Summary

Daily Weather History Graph

Daily Weather History Graph

Search for Another Location

Airport or City:

Trip Planner

Search our weather history database for the weather conditions in past years. The results will help you decide how hot, cold, wet, or windy it might be!

Date:

Astronomy

Nov. 18, 2012 Rise Set
Actual Time 6:50 AM MST 4:54 PM MST
Civil Twilight 6:22 AM MST 5:22 PM MST
Nautical Twilight 5:50 AM MST 5:54 PM MST
Astronomical Twilight 5:19 AM MST 6:25 PM MST
Moon 11:20 AM MST (11/18) 10:15 PM MST (11/18)
Length of Visible Light 10h 59m
Length of Day
10h 03m
Waxing Crescent, 31% of the Moon is Illuminated
Nov 18
Waxing Crescent
Nov 20
First Quarter
Nov 28
Full
Dec 6
Last Quarter
Dec 13
New

Hourly Weather History & Observations

Time (MST) Temp. Windchill Dew Point Humidity Pressure Visibility Wind Dir Wind Speed Gust Speed Precip Events Conditions
12:01 AM 23.0 °F 9.2 °F 21.2 °F 93% 30.29 in 10.0 mi SW 17.3 mph 21.9 mph N/A   Overcast
12:21 AM 23.0 °F 10.1 °F 21.2 °F 93% 30.29 in 10.0 mi SW 15.0 mph 20.7 mph N/A   Overcast
12:41 AM 21.2 °F 8.3 °F 21.2 °F 100% 30.28 in 10.0 mi SW 13.8 mph 19.6 mph N/A   Overcast
1:01 AM 21.2 °F 7.3 °F 21.2 °F 100% 30.27 in 10.0 mi SW 16.1 mph - N/A   Overcast
1:21 AM 21.2 °F 8.9 °F 21.2 °F 100% 30.27 in 10.0 mi SW 12.7 mph 20.7 mph N/A   Overcast
1:41 AM 21.2 °F 6.8 °F 21.2 °F 100% 30.27 in 10.0 mi SW 17.3 mph 20.7 mph N/A   Overcast
2:01 AM 21.2 °F 6.4 °F 21.2 °F 100% 30.27 in 10.0 mi SW 18.4 mph 24.2 mph N/A   Overcast
2:21 AM 21.2 °F 7.3 °F 21.2 °F 100% 30.27 in 10.0 mi SW 16.1 mph 24.2 mph N/A   Overcast
2:41 AM 21.2 °F 6.8 °F 21.2 °F 100% 30.26 in 10.0 mi SW 17.3 mph 23.0 mph N/A   Overcast
3:01 AM 21.2 °F 7.3 °F 21.2 °F 100% 30.26 in 10.0 mi SW 16.1 mph 23.0 mph N/A   Overcast
3:21 AM 21.2 °F 8.9 °F 21.2 °F 100% 30.25 in 7.0 mi SSW 12.7 mph 21.9 mph N/A Snow Light Snow
3:41 AM 21.2 °F 7.8 °F 21.2 °F 100% 30.24 in 10.0 mi SW 15.0 mph 24.2 mph N/A   Overcast
4:01 AM 21.2 °F 6.8 °F 21.2 °F 100% 30.24 in 1.2 mi SSW 17.3 mph 27.6 mph N/A Snow Light Snow
4:21 AM 21.2 °F 7.8 °F 21.2 °F 100% 30.24 in 1.0 mi SSW 15.0 mph 25.3 mph N/A Snow Light Snow
4:41 AM 21.2 °F 7.3 °F 21.2 °F 100% 30.25 in 0.5 mi SW 16.1 mph 26.5 mph N/A Fog Light Freezing Fog
5:01 AM 21.2 °F 7.3 °F 21.2 °F 100% 30.24 in 0.5 mi SW 16.1 mph 25.3 mph N/A Fog Light Freezing Fog
5:21 AM 21.2 °F 6.8 °F 21.2 °F 100% 30.24 in 0.2 mi SSW 17.3 mph 24.2 mph N/A Snow Light Snow
5:41 AM 21.2 °F 7.3 °F 21.2 °F 100% 30.25 in 0.2 mi SW 16.1 mph 21.9 mph N/A Snow Light Snow
6:01 AM 21.2 °F 7.8 °F 21.2 °F 100% 30.24 in 0.2 mi SW 15.0 mph 23.0 mph N/A Snow Light Snow
6:21 AM 23.0 °F 8.0 °F 21.2 °F 93% 30.24 in 0.5 mi SW 20.7 mph 25.3 mph N/A Fog Light Freezing Fog
6:41 AM 23.0 °F 6.9 °F 21.2 °F 93% 30.24 in 1.0 mi SW 24.2 mph 31.1 mph N/A   Overcast
7:01 AM 21.2 °F 4.2 °F 21.2 °F 100% 30.23 in 10.0 mi SW 25.3 mph 36.8 mph N/A   Mostly Cloudy
7:21 AM 21.2 °F 5.6 °F 21.2 °F 100% 30.24 in 10.0 mi SW 20.7 mph 33.4 mph N/A   Scattered Clouds
7:41 AM 21.2 °F 5.2 °F 21.2 °F 100% 30.24 in 10.0 mi SW 21.9 mph 33.4 mph N/A   Clear
8:01 AM 21.2 °F 5.6 °F 21.2 °F 100% 30.24 in 10.0 mi SW 20.7 mph 28.8 mph N/A   Scattered Clouds
8:21 AM 21.2 °F 8.3 °F 21.2 °F 100% 30.26 in 10.0 mi SW 13.8 mph 32.2 mph N/A   Scattered Clouds
8:41 AM 23.0 °F 11.1 °F 23.0 °F 100% 30.26 in 0.8 mi SW 12.7 mph 21.9 mph N/A   Overcast
9:01 AM 23.0 °F 8.7 °F 23.0 °F 100% 30.25 in 0.2 mi SSW 18.4 mph 27.6 mph N/A Snow Light Snow
9:21 AM 23.0 °F 10.6 °F 23.0 °F 100% 30.26 in 0.2 mi SW 13.8 mph 32.2 mph N/A Snow Light Snow
9:41 AM 23.0 °F 9.6 °F 23.0 °F 100% 30.26 in 0.8 mi SW 16.1 mph 26.5 mph N/A   Overcast
10:01 AM 23.0 °F 6.6 °F 23.0 °F 100% 30.26 in 1.5 mi SW 25.3 mph 34.5 mph N/A   Overcast
10:21 AM 23.0 °F 8.3 °F 23.0 °F 100% 30.27 in 10.0 mi SW 19.6 mph 33.4 mph N/A   Overcast
10:41 AM 24.8 °F 12.4 °F 24.8 °F 100% 30.27 in 5.0 mi SSW 15.0 mph 28.8 mph N/A   Overcast
11:01 AM 23.0 °F 8.3 °F 23.0 °F 100% 30.27 in 10.0 mi SSW 19.6 mph 27.6 mph N/A   Overcast
11:21 AM 24.8 °F 12.9 °F 23.0 °F 93% 30.27 in 10.0 mi SSW 13.8 mph 25.3 mph N/A   Overcast
11:41 AM 26.6 °F 13.4 °F 23.0 °F 86% 30.26 in 10.0 mi SSW 18.4 mph 26.5 mph N/A   Overcast
12:01 PM 26.6 °F 14.3 °F 23.0 °F 86% 30.25 in 10.0 mi SSW 16.1 mph 26.5 mph N/A   Overcast
12:21 PM 26.6 °F 14.7 °F 21.2 °F 80% 30.25 in 10.0 mi SSW 15.0 mph 27.6 mph N/A   Overcast
12:41 PM 28.4 °F 16.6 °F 21.2 °F 74% 30.25 in 10.0 mi SW 16.1 mph 28.8 mph N/A   Overcast
1:01 PM 26.6 °F 13.4 °F 21.2 °F 80% 30.25 in 10.0 mi SSW 18.4 mph 29.9 mph N/A   Overcast
1:21 PM 28.4 °F 16.2 °F 21.2 °F 74% 30.24 in 10.0 mi SSW 17.3 mph 29.9 mph N/A   Overcast
1:41 PM 28.4 °F 17.5 °F 21.2 °F 74% 30.24 in 10.0 mi SSW 13.8 mph 29.9 mph N/A   Mostly Cloudy
2:01 PM 30.2 °F 18.5 °F 21.2 °F 69% 30.24 in 10.0 mi SW 17.3 mph 31.1 mph N/A   Mostly Cloudy
2:21 PM 30.2 °F 19.3 °F 21.2 °F 69% 30.24 in 10.0 mi SW 15.0 mph 26.5 mph N/A   Mostly Cloudy
2:41 PM 28.4 °F 18.5 °F 21.2 °F 74% 30.26 in 10.0 mi SSW 11.5 mph 20.7 mph N/A   Overcast
3:01 PM 28.4 °F 19.7 °F 21.2 °F 74% 30.27 in 10.0 mi SSW 9.2 mph 21.9 mph N/A   Overcast
3:21 PM 28.4 °F 18.0 °F 19.4 °F 69% 30.27 in 10.0 mi SSW 12.7 mph 23.0 mph N/A   Mostly Cloudy
3:41 PM 26.6 °F 13.8 °F 19.4 °F 74% 30.27 in 10.0 mi SW 17.3 mph 26.5 mph N/A   Mostly Cloudy
4:01 PM 26.6 °F 13.4 °F 19.4 °F 74% 30.28 in 10.0 mi SW 18.4 mph 23.0 mph N/A   Scattered Clouds
4:21 PM 24.8 °F 12.9 °F 19.4 °F 80% 30.29 in 10.0 mi SW 13.8 mph 21.9 mph N/A   Mostly Cloudy
4:41 PM 26.6 °F 13.1 °F 21.2 °F 80% 30.29 in 10.0 mi SW 19.6 mph 23.0 mph N/A   Overcast
5:01 PM 24.8 °F 14.0 °F 21.2 °F 86% 30.29 in 10.0 mi SW 11.5 mph 20.7 mph N/A   Overcast
5:20 PM 24.8 °F 11.5 °F 21.2 °F 86% 30.30 in 10.0 mi SW 17.3 mph 24.2 mph N/A   Overcast
5:41 PM 24.8 °F 10.3 °F 21.2 °F 86% 30.29 in 10.0 mi SW 20.7 mph 31.1 mph N/A   Mostly Cloudy
6:01 PM 23.0 °F 8.7 °F 21.2 °F 93% 30.30 in 10.0 mi SW 18.4 mph 27.6 mph N/A   Scattered Clouds
6:21 PM 23.0 °F 8.3 °F 21.2 °F 93% 30.30 in 10.0 mi SW 19.6 mph 31.1 mph N/A   Scattered Clouds
6:41 PM 23.0 °F 7.2 °F 21.2 °F 93% 30.30 in 10.0 mi SW 23.0 mph 33.4 mph N/A   Scattered Clouds
7:01 PM 23.0 °F 7.2 °F 21.2 °F 93% 30.30 in 10.0 mi SW 23.0 mph 33.4 mph N/A   Scattered Clouds
7:21 PM 23.0 °F 7.2 °F 21.2 °F 93% 30.31 in 10.0 mi SW 23.0 mph 33.4 mph N/A   Scattered Clouds
7:41 PM 23.0 °F 6.9 °F 21.2 °F 93% 30.31 in 10.0 mi SW 24.2 mph 31.1 mph N/A   Scattered Clouds
8:01 PM 23.0 °F 6.6 °F 21.2 °F 93% 30.31 in 10.0 mi SW 25.3 mph 33.4 mph N/A   Scattered Clouds
8:21 PM 23.0 °F 6.3 °F 21.2 °F 93% 30.31 in 10.0 mi SW 26.5 mph 33.4 mph N/A   Scattered Clouds
8:41 PM 21.2 °F 4.5 °F 21.2 °F 100% 30.32 in 10.0 mi SW 24.2 mph 34.5 mph N/A   Clear
9:01 PM 21.2 °F 3.3 °F 21.2 °F 100% 30.32 in 10.0 mi SW 28.8 mph 34.5 mph N/A   Clear
9:41 PM 21.2 °F 3.5 °F 19.4 °F 93% 30.33 in 10.0 mi SW 27.6 mph 34.5 mph N/A   Clear
10:01 PM 21.2 °F 4.5 °F 19.4 °F 93% 30.33 in 10.0 mi WSW 24.2 mph 34.5 mph N/A   Clear
10:21 PM 21.2 °F 4.9 °F 21.2 °F 100% 30.33 in 10.0 mi SW 23.0 mph 32.2 mph N/A   Scattered Clouds
10:41 PM 21.2 °F 5.6 °F 19.4 °F 93% 30.34 in 10.0 mi SW 20.7 mph 29.9 mph N/A   Scattered Clouds
11:01 PM 21.2 °F 4.9 °F 19.4 °F 93% 30.35 in 10.0 mi SW 23.0 mph 28.8 mph N/A   Clear
11:21 PM 21.2 °F 5.6 °F 19.4 °F 93% 30.35 in 10.0 mi SW 20.7 mph 28.8 mph N/A   Clear
11:41 PM 21.2 °F 5.6 °F 19.4 °F 93% 30.35 in 10.0 mi SW 20.7 mph 28.8 mph N/A   Clear